Flag for Netherlands Weather past 2 weeks in The Hague, Netherlands

Now
59 °F

Clear.


Feels Like: 57 °F
Forecast: 44 / 54 °F
Wind: 13 mph from North

Location: Rotterdam Zestienhoven Airport

Current Time: Apr 21, 2015 at 3:52:45 PM

Latest Report: Apr 21, 2015 at 3:25 PM


Visibility: N/A

Pressure: 30.48 "Hg

Humidity: 63%

Dew point: 46 °F

Location of The HagueLocation

Historic Weather in The Hague — Graph

°F

The Hague temperature yesterday

Maximum temperature yesterday: 63 °F (at 3:25 PM)
Minimum temperature yesterday: 37 °F (at 3:25 AM)
Average temperature yesterday: 50 °F

Past Weeks' High & Low Weather Summary

 TemperatureHumidityPressure
High70 °F (Apr 15, 1:55 PM)100% (Apr 7, 1:25 AM)30.63 "Hg (Apr 7, 1:25 AM)
Low34 °F (Apr 7, 5:55 AM)37% (Apr 10, 6:25 PM)29.92 "Hg (Apr 11, 1:55 AM)
Average49 °F76%30.28 "Hg
* Reported Apr 6 2:25 PM — Apr 21 2:25 PM, The Hague, Weather by CustomWeather, © 2015

Note: Actual official high and low records may vary slightly from our data, if they occured in-between our weather recording intervals... More about our weather records

Advertising

The Hague weather history for previous 24 hours

 ConditionsComfort  
Time TempWeatherWind HumidityBarometerVisibility
2:25 PM
Tue, Apr 21
59 °FClear.12 mph63%30.51 "HgN/A
1:55 PM61 °FClear.10 mph59%30.48 "HgN/A
1:25 PM61 °FClear.8 mph63%30.48 "HgN/A
12:55 PM61 °FClear.7 mph59%30.51 "HgN/A
12:25 PM59 °FClear.8 mph51%30.51 "HgN/A
11:55 AM59 °FClear.8 mph55%30.51 "HgN/A
11:25 AM57 °FClear.9 mph55%30.48 "HgN/A
10:55 AM55 °FCool.7 mph63%30.48 "HgN/A
10:25 AM54 °FCool.7 mph67%30.48 "HgN/A
9:55 AM52 °FClear.7 mph72%30.48 "HgN/A
9:25 AM50 °FClear.7 mph82%30.48 "HgN/A
8:55 AM48 °FCool.6 mph87%30.48 "HgN/A
8:25 AM46 °FClear.6 mph87%30.48 "HgN/A
7:55 AM45 °FClear.5 mph93%30.48 "HgN/A
7:25 AM43 °FClear.3 mph93%30.45 "HgN/A
6:55 AM41 °FClear.7 mph100%30.45 "HgN/A
6:25 AM39 °FChilly.5 mph100%30.45 "HgN/A
5:55 AM37 °FFog.3 mph100%30.45 "Hg3 mi
5:25 AM39 °FChilly.3 mph100%30.45 "Hg4 mi
4:55 AM41 °FQuite cool.3 mph93%30.45 "Hg4 mi
4:25 AM41 °FQuite cool.3 mph100%30.45 "HgN/A
3:55 AM41 °FQuite cool.3 mph93%30.45 "HgN/A
3:25 AM43 °FQuite cool.5 mph93%30.45 "HgN/A
2:55 AM43 °FQuite cool.5 mph87%30.45 "HgN/A
2:25 AM41 °FQuite cool.5 mph87%30.45 "HgN/A
1:55 AM45 °FClear.5 mph81%30.45 "HgN/A
1:25 AM45 °FClear.5 mph81%30.42 "HgN/A
12:55 AM45 °FClear.3 mph81%30.42 "HgN/A
12:25 AM46 °FCool.5 mph76%30.42 "HgN/A
11:55 PM
Mon, Apr 20
48 °FCool.7 mph71%30.42 "HgN/A
11:25 PM48 °FClear.6 mph76%30.42 "HgN/A
10:55 PM50 °FCool.6 mph71%30.42 "HgN/A
10:25 PM52 °FClear.7 mph62%30.42 "HgN/A
9:55 PM48 °FClear.7 mph82%30.42 "HgN/A
9:25 PM50 °FClear.6 mph82%30.42 "HgN/A
8:55 PM52 °FClear.7 mph77%30.39 "HgN/A
8:25 PM54 °FClear.8 mph72%30.39 "HgN/A
7:55 PM55 °FCool.8 mph67%30.39 "HgN/A
7:25 PM55 °FCool.12 mph67%30.39 "HgN/A
6:55 PM57 °FCool.10 mph63%30.39 "HgN/A
6:25 PM57 °FCool.12 mph63%30.39 "HgN/A
5:55 PM59 °FRefreshingly cool.12 mph59%30.39 "HgN/A
5:25 PM59 °FClear.12 mph59%30.39 "HgN/A
4:55 PM59 °FRefreshingly cool.12 mph55%30.39 "HgN/A
4:25 PM61 °FClear.12 mph59%30.39 "HgN/A
3:55 PM63 °FMild.12 mph42%30.39 "HgN/A
3:25 PM63 °FClear.10 mph52%30.39 "HgN/A
Weather by CustomWeather, © 2015

See weather overviewHow to use our weather pages